Sandy Hook Coast Guard Station, New Jersey, United States
Lat: 40.47N, Lon: 74.02W
Wx Zone: K56N
Local Info
Past Weather Observations for Today

NOTE: This archive is for the closest National Weather Service station to Sandy Hook Coast Guard Station. Information may differ from the station used for current weather conditions.

Click here for Long-term Archive

Time Weather Temperature Dewpoint Humidity Pressure Winds Precip Visibility
21:51
Overcast
52°F / 11°C 45°F / 7°C 77% 29.89 in
(1012 mb)
NE 11.5 mph
(NE 19 kph)
0.00 in
(0.00 mm)
10SM
21:16
Overcast
54°F / 12°C 45°F / 7°C 72% 29.89 in
(1012 mb)
NE 16.1 mph
(NE 26 kph)
0.00 in
(0.00 mm)
10SM
20:51
Overcast
54°F / 12°C 41°F / 5°C 63% 29.89 in
(1012 mb)
NE 13.8 mph
(NE 22 kph)
- 10SM
19:51
Overcast
52°F / 11°C 39°F / 4°C 62% 29.89 in
(1012 mb)
NE 11.5 mph
(NE 19 kph)
- 10SM
18:51
Overcast
54°F / 12°C 41°F / 5°C 63% 29.92 in
(1013 mb)
NE 10.4 mph
(NE 17 kph)
- 10SM
17:51
Overcast
54°F / 12°C 43°F / 6°C 67% 29.92 in
(1013 mb)
NE 8.1 mph
(NE 13 kph)
- 10SM
16:51
Overcast
54°F / 12°C 37°F / 3°C 54% 29.92 in
(1013 mb)
NE 6.9 mph
(NE 11 kph)
- 10SM
15:51
Overcast
54°F / 12°C 37°F / 3°C 54% 29.92 in
(1013 mb)
NNE 11.5 mph
(NNE 19 kph)
- 10SM
14:51
Overcast
54°F / 12°C 37°F / 3°C 54% 29.92 in
(1013 mb)
NNE 10.4 mph
(NNE 17 kph)
- 10SM
13:51
Overcast
52°F / 11°C 37°F / 3°C 58% 29.92 in
(1013 mb)
N 11.5 mph
(N 19 kph)
- 10SM
12:51
Overcast
52°F / 11°C 37°F / 3°C 58% 29.95 in
(1014 mb)
NNE 10.4 mph
(NNE 17 kph)
- 10SM
11:51
Overcast
52°F / 11°C 37°F / 3°C 58% 29.98 in
(1015 mb)
N 8.1 mph
(N 13 kph)
- 10SM
10:51
Mostly Cloudy
52°F / 11°C 36°F / 2°C 54% 29.98 in
(1015 mb)
N 9.2 mph
(N 15 kph)
- 10SM
09:51
Mostly Cloudy
48°F / 9°C 36°F / 2°C 62% 30.01 in
(1016 mb)
NNE 10.4 mph
(NNE 17 kph)
- 10SM
08:51
Mostly Cloudy
46°F / 8°C 37°F / 3°C 71% 30.01 in
(1016 mb)
NNE 10.4 mph
(NNE 17 kph)
- 10SM
07:51
Mostly Cloudy
45°F / 7°C 36°F / 2°C 71% 30.04 in
(1017 mb)
NNE 9.2 mph
(NNE 15 kph)
- 10SM
06:51
Mostly Cloudy
45°F / 7°C 36°F / 2°C 71% 30.04 in
(1017 mb)
NNE 10.4 mph
(NNE 17 kph)
- 10SM
05:51
Mostly Cloudy
45°F / 7°C 36°F / 2°C 71% 30.04 in
(1017 mb)
NNE 6.9 mph
(NNE 11 kph)
- 10SM
04:51
Mostly Cloudy
43°F / 6°C 36°F / 2°C 76% 30.04 in
(1017 mb)
N 5.8 mph
(N 9 kph)
- 10SM
03:51
Mostly Cloudy
43°F / 6°C 36°F / 2°C 76% 30.01 in
(1016 mb)
N 5.8 mph
(N 9 kph)
- 10SM
02:51
Partly Cloudy
43°F / 6°C 36°F / 2°C 76% 30.01 in
(1016 mb)
NNE 8.1 mph
(NNE 13 kph)
- 10SM
01:51
Partly Cloudy
43°F / 6°C 34°F / 1°C 71% 30.04 in
(1017 mb)
NNE 6.9 mph
(NNE 11 kph)
- 10SM
00:51
Partly Cloudy
45°F / 7°C 34°F / 1°C 66% 30.04 in
(1017 mb)
NNE 8.1 mph
(NNE 13 kph)
- 10SM
Time Weather Temperature Dewpoint Humidity Pressure Winds Precip Visibility


Weather for websites

WeatherForYou.com, LLC is not responsible for any damages or problems caused by this service. Current weather conditions are obtained from the closest station including government and personal stations which may have varying degrees of accuracy. Weather forecasts are derived from the NOAA NDFD. Like all things, this site belongs to Jesus Christ... He just trusts me to maintain it. If you have any questions or comments email webmaster@weatherforyou.com

Copyright © 2014, WeatherForYou.com LLC. All rights reserved.